Wind_Speed
71 67 63 62 56 54 52 55 56 54 51 51 49 44 44 46 45 44 44 42 41 43 45 46 44 44 44 44 40 44 45 46 45 46 49 50 55 61 63 68 72 77 79
65 70 65 62 60 55 56 54 57 57 56 54 53 50 45 45 47 47 45 48 43 44 45 49 50 50 47 46 46 48 49 48 47 49 58 59 63 64 69 74 78 83 86
71 71 66 64 64 60 59 59 58 57 57 58 56 53 49 48 50 49 50 49 47 46 47 49 52 52 53 48 49 52 50 51 55 58 61 64 67 70 76 81 85 90 89
74 75 72 72 70 69 66 62 62 60 58 59 59 57 53 50 52 53 53 52 50 49 50 50 51 51 50 55 52 54 56 58 61 63 65 68 73 76 84 88 91 88 87
77 77 78 76 73 72 67 65 62 58 56 59 61 59 57 56 55 56 56 53 52 52 51 53 52 50 52 54 54 56 60 63 65 67 68 72 77 82 85 91 92 89 88
80 80 78 77 75 74 68 66 64 64 61 60 62 63 62 59 58 56 54 52 53 52 53 54 53 52 53 54 56 60 65 67 68 68 73 80 86 89 90 90 84 84 86
78 83 82 78 79 79 73 67 66 66 59 61 64 64 64 63 61 56 53 50 50 53 53 54 55 56 56 58 62 65 68 70 71 75 79 86 88 89 92 87 84 84 89
73 76 76 83 82 82 81 74 71 71 70 68 68 66 66 65 65 65 61 58 55 53 54 55 55 58 59 62 65 66 70 72 77 81 85 89 89 90 89 88 85 87 93
75 72 76 83 85 88 84 79 74 73 70 67 63 62 60 60 60 60 58 56 55 55 52 52 57 58 62 63 66 70 74 78 80 83 86 87 88 90 91 89 89 90 93
76 75 78 80 86 91 90 82 81 76 75 75 74 71 67 63 59 59 60 61 62 61 59 58 60 61 64 67 69 74 76 79 82 84 87 88 90 91 89 89 92 96 98
81 85 85 85 81 83 85 84 83 83 81 78 76 75 71 67 64 58 58 58 58 59 61 63 66 68 70 71 73 76 79 82 81 85 87 91 93 90 88 93 96 100 100
87 92 89 85 81 81 81 81 82 84 86 81 78 77 74 72 70 65 60 61 62 62 60 61 65 67 69 74 79 79 82 83 85 87 90 94 92 88 92 97 101 105 99
90 92 92 88 82 81 82 82 82 87 89 84 81 81 79 77 73 69 66 62 64 62 61 62 67 72 78 80 82 79 83 83 87 90 93 92 87 92 98 100 104 104 99
90 92 92 92 89 86 84 83 81 82 82 86 85 82 80 79 79 74 71 70 69 66 71 74 78 78 79 78 78 80 82 85 89 91 91 88 91 95 100 104 106 100 98
100 100 96 93 93 91 86 85 84 82 78 78 81 84 84 83 82 81 78 76 74 76 76 75 76 77 77 78 78 81 83 86 90 89 89 91 93 100 104 106 103 99 97
106 101 97 93 94 92 90 89 86 86 83 79 76 77 83 85 85 84 83 82 79 78 78 77 76 75 73 76 77 80 83 87 88 88 88 93 98 103 105 107 100 99 97
109 104 100 96 95 96 95 91 88 87 83 82 78 76 75 80 84 84 83 81 80 78 78 75 72 71 73 73 77 81 83 86 85 86 90 93 100 106 109 101 100 99 95
109 95 98 98 99 99 100 93 87 84 81 79 80 78 75 73 76 80 80 79 79 78 73 69 69 72 71 76 78 80 84 84 84 91 93 97 104 106 101 99 98 95 93
105 101 99 95 93 93 91 87 84 79 78 77 75 74 73 72 71 72 74 74 73 72 73 73 71 73 74 74 77 80 81 81 88 91 94 99 105 98 95 96 95 92 92
106 98 93 90 86 82 80 80 77 76 75 75 73 70 69 69 66 65 66 67 68 67 67 68 68 68 72 76 79 79 79 85 90 92 95 102 96 93 94 93 90 88 90
104 96 95 89 86 80 77 75 74 73 75 76 70 65 65 64 64 64 62 61 59 61 62 66 68 70 74 77 76 79 84 88 90 93 98 96 91 92 92 91 88 86 89
94 96 90 87 86 82 78 76 75 79 78 75 68 62 63 61 62 60 58 56 56 59 63 65 66 71 73 75 78 82 83 86 92 97 96 92 91 93 92 90 88 87 91
94 87 83 86 84 86 86 82 81 79 77 73 67 63 62 61 56 55 54 52 55 59 64 66 69 71 74 76 78 79 84 93 93 95 93 92 92 92 91 90 88 88 91
87 89 89 84 84 83 84 87 83 78 70 69 65 61 62 62 60 60 60 57 60 63 66 67 71 73 77 77 81 85 89 88 93 93 93 93 92 91 91 90 89 89 92
81 82 84 82 80 81 82 81 78 73 69 65 62 61 64 64 60 61 62 58 62 65 67 69 72 75 79 81 83 82 86 91 90 93 92 93 90 89 90 89 89 91 94
77 80 78 80 79 73 77 78 75 70 66 63 66 63 65 65 60 65 64 64 67 69 71 75 77 79 80 78 79 84 86 88 90 91 91 90 88 89 90 90 91 93 94
Wind_Direction
247 248 249 254 254 261 254 247 249 252 254 254 256 258 259 259 263 263 265 263 266 268 269 269 272 273 273 278 280 283 286 287 290 292 293 295 293 297 302 303 304 303 303
244 249 249 252 253 256 259 255 249 254 253 254 256 257 260 262 262 260 263 264 268 269 270 272 271 273 273 277 282 283 284 288 288 288 291 293 294 297 302 302 304 305 303
239 243 247 248 250 254 252 255 255 251 252 253 255 257 257 260 261 261 262 266 265 273 274 276 274 275 274 279 284 284 287 290 289 288 289 293 296 299 302 304 306 305 303
243 242 244 245 246 249 252 254 257 259 253 252 254 257 260 260 263 262 262 264 267 273 273 278 280 279 278 282 285 285 287 285 286 287 289 293 298 300 303 306 307 305 302
240 244 246 248 246 247 250 254 258 257 258 252 253 256 258 259 261 263 263 266 269 271 272 275 278 279 280 280 285 285 284 284 285 285 291 295 297 301 304 308 307 304 304
238 238 242 245 248 249 250 250 249 254 255 252 251 251 253 256 261 264 267 268 269 268 271 273 275 278 279 281 284 285 285 284 285 287 295 296 299 302 305 307 303 303 307
238 239 237 239 245 248 247 245 248 249 250 250 251 253 255 256 260 265 269 268 267 269 267 268 270 276 279 281 283 283 282 283 287 293 296 298 301 305 306 304 304 309 309
241 242 242 241 241 245 249 246 242 246 251 249 255 258 258 258 260 263 265 267 267 266 266 268 273 275 279 281 282 282 283 286 291 295 299 301 304 305 304 305 308 311 310
244 245 243 240 241 242 245 248 246 243 248 250 250 254 260 263 262 262 263 263 263 264 267 267 270 274 278 277 278 281 285 289 295 299 302 304 305 305 305 306 308 310 310
243 246 246 245 242 243 242 244 248 247 248 250 251 253 257 261 265 264 263 265 267 268 270 271 273 274 274 275 279 285 290 295 299 302 303 303 305 305 306 308 309 309 311
246 243 242 242 245 247 247 245 247 247 250 250 251 255 257 259 261 264 265 267 268 269 272 274 274 273 274 278 284 290 295 298 299 302 303 304 305 305 307 309 310 311 312
240 247 247 245 247 248 251 249 246 248 250 251 251 253 255 257 260 261 263 266 267 268 270 273 273 273 281 287 293 294 295 297 299 303 303 304 305 307 308 309 309 311 312
240 246 250 251 247 250 250 251 250 248 247 250 252 253 254 256 258 260 262 265 269 273 270 270 274 279 285 289 291 293 295 296 299 301 302 305 306 307 307 309 309 312 312
238 239 243 249 252 251 251 251 251 252 252 250 249 251 254 254 255 257 259 261 265 267 271 275 277 282 286 289 291 290 292 295 298 301 304 305 304 305 309 309 311 312 312
239 236 239 243 248 250 250 252 251 252 253 253 252 250 250 252 255 257 260 262 265 268 272 275 278 282 285 287 287 288 292 295 299 301 303 303 304 306 308 310 312 312 312
241 240 238 239 243 247 251 252 252 252 252 254 254 253 251 251 253 257 260 264 266 269 273 277 280 282 281 283 285 289 292 296 298 301 303 303 304 306 308 311 312 313 312
241 244 241 239 243 247 248 251 253 255 255 254 256 255 254 253 253 256 258 262 266 269 272 276 276 275 278 282 285 289 293 296 299 300 302 302 305 308 309 312 314 314 315
246 244 245 243 241 242 247 249 251 253 256 256 256 255 255 256 255 255 259 262 265 267 270 270 271 274 279 283 287 289 294 298 298 300 300 302 307 308 311 313 314 315 316
243 244 242 244 244 244 245 248 249 250 253 255 255 255 253 255 257 258 259 261 263 264 265 269 272 275 279 283 286 292 294 295 299 300 298 303 306 310 311 314 315 317 318
240 241 241 242 243 242 241 243 246 249 252 255 256 256 253 254 257 258 258 260 262 263 264 267 273 275 279 284 288 291 293 295 298 297 300 303 308 311 313 315 316 318 318
240 237 239 238 239 240 240 241 243 246 249 253 255 253 251 253 256 256 255 254 259 261 264 268 273 277 280 285 287 291 294 295 294 298 300 307 310 312 314 316 317 317 317
244 244 241 241 238 239 240 240 242 245 249 254 254 251 249 252 255 253 253 256 262 266 270 271 272 277 282 284 289 292 293 294 297 298 304 309 312 314 316 317 318 317 319
234 243 240 240 240 240 242 242 243 247 251 252 252 247 246 250 252 249 250 254 260 267 267 270 273 276 282 286 292 291 291 295 298 300 308 311 313 315 316 317 318 318 319
235 236 237 236 236 239 241 244 245 246 248 250 250 246 244 246 250 250 253 257 262 262 265 270 272 279 284 289 290 289 292 296 299 304 308 311 313 315 316 317 318 318 319
239 240 237 236 238 238 239 242 244 244 244 247 250 246 242 243 247 250 252 256 258 260 265 271 276 280 286 286 288 288 292 297 302 305 308 311 313 314 315 317 319 319 320
236 238 238 235 234 236 238 240 243 245 244 245 248 248 245 244 248 252 253 255 258 261 266 271 277 282 284 285 286 289 295 299 302 305 309 312 313 314 316 318 319 320 320
Height
10765 10769 10778 10785 10790 10789 10794 10797 10800 10802 10804 10806 10809 10811 10813 10814 10815 10817 10817 10817 10817 10818 10817 10817 10817 10815 10815 10813 10811 10808 10805 10801 10799 10795 10793 10790 10783 10780 10777 10771 10763 10756 10750
10758 10757 10766 10775 10775 10780 10782 10785 10788 10792 10794 10796 10800 10803 10805 10805 10805 10807 10808 10808 10809 10809 10809 10808 10808 10807 10806 10804 10802 10799 10796 10792 10789 10784 10780 10778 10771 10768 10764 10754 10748 10739 10731
10745 10747 10753 10760 10764 10767 10770 10773 10777 10779 10783 10786 10789 10792 10795 10796 10796 10797 10798 10799 10800 10800 10800 10799 10798 10797 10796 10794 10791 10789 10786 10782 10778 10774 10769 10764 10761 10755 10747 10739 10730 10720 10711
10728 10731 10738 10743 10751 10751 10758 10762 10765 10768 10772 10776 10778 10782 10785 10784 10784 10785 10787 10788 10789 10790 10789 10788 10787 10786 10785 10783 10780 10778 10775 10771 10767 10762 10757 10752 10745 10738 10727 10722 10713 10702 10691
10711 10715 10721 10725 10734 10738 10745 10749 10753 10756 10759 10763 10766 10770 10771 10773 10774 10774 10776 10778 10779 10779 10778 10777 10776 10775 10773 10771 10769 10766 10763 10759 10754 10749 10744 10738 10732 10725 10717 10703 10688 10676 10668
10694 10697 10704 10713 10720 10725 10731 10736 10742 10744 10748 10750 10752 10754 10758 10761 10763 10764 10766 10768 10768 10768 10767 10767 10765 10764 10761 10759 10756 10753 10750 10745 10740 10735 10729 10722 10714 10707 10699 10690 10679 10669 10655
10676 10679 10689 10699 10703 10708 10714 10723 10727 10732 10734 10736 10740 10743 10747 10750 10752 10754 10756 10756 10757 10756 10756 10756 10755 10753 10749 10747 10744 10740 10735 10730 10725 10719 10713 10706 10699 10689 10680 10672 10661 10649 10634
10659 10668 10680 10681 10687 10692 10696 10706 10711 10716 10720 10724 10728 10732 10736 10738 10741 10743 10744 10745 10745 10745 10745 10744 10742 10740 10737 10735 10730 10726 10721 10715 10709 10703 10696 10688 10680 10670 10660 10651 10642 10629 10614
10647 10653 10657 10661 10668 10671 10678 10688 10695 10702 10708 10712 10716 10719 10722 10724 10727 10730 10731 10732 10733 10733 10732 10730 10729 10727 10725 10720 10716 10711 10706 10699 10692 10686 10678 10670 10661 10652 10641 10631 10621 10614 10605
10630 10636 10637 10640 10646 10648 10662 10672 10679 10688 10694 10698 10702 10705 10708 10711 10714 10716 10717 10718 10720 10720 10719 10718 10716 10713 10709 10705 10700 10696 10689 10684 10677 10669 10661 10653 10644 10633 10623 10612 10600 10589 10578
10611 10606 10608 10615 10628 10640 10649 10660 10665 10670 10675 10679 10686 10690 10693 10697 10700 10703 10704 10705 10705 10706 10705 10704 10701 10698 10694 10690 10685 10680 10674 10668 10660 10653 10645 10636 10626 10615 10605 10594 10581 10567 10555
10591 10584 10593 10606 10618 10625 10632 10639 10648 10652 10655 10665 10670 10674 10677 10681 10685 10688 10690 10691 10691 10692 10690 10689 10686 10683 10679 10674 10670 10664 10658 10651 10644 10636 10627 10617 10608 10597 10586 10574 10561 10548 10533
10575 10574 10577 10589 10604 10608 10615 10619 10627 10632 10639 10648 10654 10658 10662 10668 10670 10672 10674 10676 10676 10677 10676 10674 10671 10667 10664 10659 10655 10648 10642 10635 10628 10619 10610 10600 10590 10579 10568 10555 10542 10527 10512
10559 10557 10563 10571 10582 10589 10594 10601 10609 10613 10621 10629 10636 10642 10647 10650 10653 10657 10660 10661 10662 10662 10662 10660 10656 10653 10649 10644 10639 10632 10626 10619 10611 10602 10591 10583 10573 10563 10549 10537 10523 10508 10494
10527 10537 10546 10553 10560 10566 10575 10581 10592 10596 10603 10610 10617 10623 10628 10633 10636 10640 10643 10645 10646 10647 10646 10644 10641 10638 10633 10628 10623 10616 10610 10603 10595 10585 10574 10564 10555 10544 10532 10518 10504 10490 10476
10493 10513 10527 10537 10542 10549 10557 10562 10572 10577 10587 10594 10599 10604 10609 10614 10620 10623 10626 10628 10629 10630 10629 10628 10625 10622 10617 10612 10606 10601 10595 10587 10579 10570 10560 10549 10537 10525 10511 10497 10482 10470 10457
10479 10491 10507 10519 10524 10530 10536 10547 10556 10561 10571 10578 10584 10588 10592 10596 10601 10605 10608 10611 10613 10613 10612 10611 10608 10605 10601 10596 10591 10585 10578 10571 10562 10554 10545 10535 10522 10507 10491 10476 10462 10447 10432
10447 10478 10484 10494 10501 10507 10510 10526 10539 10545 10554 10562 10565 10570 10574 10579 10583 10587 10591 10594 10596 10596 10596 10594 10592 10590 10586 10581 10576 10570 10562 10554 10545 10537 10527 10517 10504 10490 10475 10460 10445 10430 10414
10436 10448 10458 10471 10479 10490 10500 10513 10521 10530 10537 10542 10546 10553 10558 10562 10566 10570 10574 10577 10579 10580 10580 10579 10577 10575 10570 10566 10560 10554 10547 10539 10530 10521 10511 10500 10489 10475 10462 10447 10431 10415 10398
10411 10428 10443 10452 10461 10473 10483 10497 10508 10517 10523 10526 10532 10539 10543 10546 10550 10553 10558 10561 10563 10564 10564 10564 10562 10558 10555 10550 10545 10539 10531 10525 10517 10505 10496 10486 10473 10460 10447 10434 10419 10403 10388
10386 10401 10415 10435 10444 10456 10470 10482 10492 10500 10503 10509 10517 10522 10526 10531 10536 10538 10541 10545 10546 10547 10548 10547 10545 10542 10538 10535 10530 10523 10516 10508 10498 10490 10481 10470 10456 10444 10431 10418 10404 10392 10378
10382 10390 10409 10424 10434 10443 10452 10464 10475 10479 10489 10493 10502 10506 10511 10517 10520 10523 10525 10528 10531 10532 10532 10531 10529 10527 10523 10519 10514 10508 10500 10491 10483 10473 10464 10452 10439 10427 10413 10401 10388 10375 10361
10362 10372 10395 10404 10418 10430 10436 10447 10454 10465 10472 10477 10484 10489 10496 10502 10504 10507 10510 10512 10515 10516 10515 10516 10514 10510 10508 10504 10498 10491 10483 10476 10466 10457 10447 10436 10423 10411 10398 10386 10373 10360 10347
10348 10356 10367 10384 10398 10410 10417 10424 10436 10446 10454 10461 10468 10474 10482 10486 10490 10494 10496 10497 10498 10499 10500 10499 10498 10495 10493 10488 10482 10476 10468 10460 10451 10443 10432 10421 10409 10397 10385 10372 10359 10346 10333
10332 10340 10355 10368 10380 10391 10397 10405 10416 10428 10438 10446 10452 10459 10465 10469 10475 10478 10480 10482 10483 10486 10484 10484 10483 10480 10477 10472 10466 10459 10452 10444 10437 10428 10418 10407 10395 10383 10370 10358 10346 10332 10319
10318 10323 10337 10350 10363 10376 10380 10390 10402 10416 10423 10432 10436 10443 10448 10455 10461 10463 10466 10466 10470 10470 10471 10470 10469 10465 10461 10456 10451 10444 10438 10431 10423 10413 10403 10392 10381 10369 10356 10344 10331 10318 10306